Weather History for Blackpool, United Kingdom

Change the Weather History Date:

Wednesday, February 13, 2013

  Actual Average Record
Temperature  
Mean Temperature 36 °F -  
Max Temperature 41 °F 45 °F 57 °F (2008)
Min Temperature 32 °F 37 °F 30 °F (2001)
Degree Days  
Heating Degree Days 30    
Moisture  
Dew Point 33 °F    
Average Humidity 92    
Maximum Humidity 100    
Minimum Humidity 62    
Precipitation  
Precipitation 0.20 in - - ()
Sea Level Pressure  
Sea Level Pressure 29.93 in    
Wind  
Wind Speed 19 mph ()    
Max Wind Speed 28 mph    
Max Gust Speed 40 mph    
Visibility 3.3 miles    
Events Rain , Snow    
Averages and records for this station are not official NWS values.
T = Trace of Precipitation, MM = Missing Value Source: Averaged Metar Reports

Daily Weather History Graph

Daily Weather History Graph

Search for Another Location

Airport:

Trip Planner

Search our weather history database for the weather conditions in past years. The results will help you decide how hot, cold, wet, or windy it might be!

Date:

Astronomy

Feb. 13, 2013 Rise Set
Actual Time 7:35 AM GMT 5:18 PM GMT
Civil Twilight 6:58 AM GMT 5:54 PM GMT
Nautical Twilight 6:17 AM GMT 6:36 PM GMT
Astronomical Twilight 5:36 AM GMT 7:17 PM GMT
Moon 8:18 AM GMT (2/13) 9:49 PM GMT (2/13)
Length of Visible Light 10h 56m
Length of Day
9h 42m
Waxing Crescent, 12% of the Moon is Illuminated
Feb 13
Waxing Crescent
Feb 17
First Quarter
Feb 25
Full
Mar 4
Last Quarter
Mar 11
New

Hourly Weather History & Observations

Time (GMT) Temp. Windchill Dew Point Humidity Pressure Visibility Wind Dir Wind Speed Gust Speed Precip Events Conditions
2:50 AM 33 °F - 27 °F 69%  in - SE 11.5 mph - -  
5:50 AM 34 °F - 26 °F 62%  in - SE 19.6 mph - -  
6:50 AM 33.8 °F 22.2 °F 26.6 °F 75% 30.06 in 6.2 mi SSE 20.7 mph - N/A   Mostly Cloudy
7:20 AM 33.8 °F 22.2 °F 26.6 °F 75% 30.06 in 6.2 mi SE 20.7 mph - N/A   Mostly Cloudy
7:50 AM 33.8 °F 22.5 °F 26.6 °F 75% 30.06 in 3.1 mi SSE 19.6 mph - N/A Snow Light Snow
8:20 AM 33.8 °F 22.2 °F 28.4 °F 81% 30.06 in 3.1 mi SSE 20.7 mph - N/A Snow Light Snow
8:50 AM 32 °F - 28 °F 79%  in - SSE 20.7 mph - -  
8:50 AM 33.8 °F 22.2 °F 30.2 °F 87% 30.06 in 2.8 mi SSE 20.7 mph - N/A Snow Snow
9:20 AM 32.0 °F 19.8 °F 30.2 °F 93% 30.06 in 1.6 mi SSE 20.7 mph - N/A Snow Snow
9:50 AM 32.0 °F 20.1 °F 30.2 °F 93% 30.06 in 1.2 mi SSE 19.6 mph - N/A Snow Snow
10:20 AM 32.0 °F 19.5 °F 32.0 °F 100% 30.04 in 0.9 mi SSE 21.9 mph - N/A Snow Snow
10:50 AM 32.0 °F 19.2 °F 32.0 °F 100% 30.04 in 1.2 mi SSE 23.0 mph - N/A Snow Snow
11:20 AM 32.0 °F 18.9 °F 32.0 °F 100% 30.01 in 1.2 mi SSE 24.2 mph - N/A Snow Snow
11:50 AM 32 °F - 30 °F 89%  in - SE 23.0 mph - -  
11:50 AM 32.0 °F 18.9 °F 32.0 °F 100% 30.01 in 1.2 mi SE 24.2 mph - N/A Rain , Snow Rain
12:20 PM 33.8 °F 21.3 °F 32.0 °F 93% 29.98 in 1.2 mi SSE 24.2 mph 35.7 mph N/A Rain Rain
12:50 PM 33.8 °F 20.8 °F 32.0 °F 93% 29.98 in 1.2 mi SSE 26.5 mph - N/A Rain Light Rain
1:20 PM 33.8 °F 20.8 °F 33.8 °F 100% 29.95 in 1.2 mi SSE 26.5 mph - N/A Rain Rain
1:50 PM 33.8 °F 21.0 °F 33.8 °F 100% 29.95 in 1.2 mi SSE 25.3 mph - N/A Rain Rain
2:20 PM 33.8 °F 21.3 °F 33.8 °F 100% 29.92 in 1.9 mi SSE 24.2 mph - N/A Rain Rain
2:50 PM 34 °F - 33 °F 93%  in - SSE 24.2 mph - -  
2:50 PM 33.8 °F 21.3 °F 33.8 °F 100% 29.89 in 1.9 mi SSE 24.2 mph - N/A Rain , Snow Light Rain
3:20 PM 35.6 °F 23.2 °F 33.8 °F 93% 29.89 in 3.7 mi SSE 26.5 mph 40.3 mph N/A Rain Light Rain
3:50 PM 35.6 °F 23.7 °F 35.6 °F 100% 29.86 in 1.9 mi SSE 24.2 mph - N/A Rain Rain
4:20 PM 35.6 °F 23.4 °F 35.6 °F 100% 29.86 in 4.3 mi SSE 25.3 mph 36.8 mph N/A   Mostly Cloudy
4:50 PM 37.4 °F 25.9 °F 35.6 °F 93% 29.83 in 4.3 mi SSE 25.3 mph - N/A   Mostly Cloudy
5:20 PM 37.4 °F 25.9 °F 35.6 °F 93% 29.83 in 5.0 mi SSE 25.3 mph - N/A   Mostly Cloudy
5:50 PM 37 °F - 35 °F 90%  in - SSE 24.2 mph - -  
6:20 PM 37.4 °F 25.9 °F 37.4 °F 100% 29.80 in 6.2 mi SSE 25.3 mph - N/A   Mostly Cloudy
6:50 PM 39.2 °F 28.5 °F 37.4 °F 93% 29.80 in 6.2 mi SSE 24.2 mph - N/A Rain Light Rain
7:20 PM 39.2 °F 28.3 °F 37.4 °F 93% 29.77 in 6.2 mi SSE 25.3 mph - N/A Rain Rain Showers
7:50 PM 39.2 °F 28.0 °F 39.2 °F 100% 29.77 in 6.2 mi SSE 26.5 mph - N/A Rain Rain Showers
8:20 PM 39.2 °F 27.8 °F 39.2 °F 100% 29.77 in 6.2 mi SSE 27.6 mph - N/A Rain Rain
8:50 PM 39 °F - 37 °F 92%  in - SSE 21.9 mph - -  
8:50 PM 39.2 °F 28.7 °F 39.2 °F 100% 29.74 in 6.2 mi SSE 23.0 mph - N/A Rain Rain
11:50 PM 41 °F - 39 °F 92%  in - SSE 18.4 mph - -